Weather History for Athens, OH

Change the Weather History Date:

Tuesday, April 30, 2013

  Actual Average (KPKB) Record (KPKB)
Temperature  
Mean Temperature 60 °F 58 °F  
Max Temperature 77 °F 71 °F 91 °F (1942)
Min Temperature 44 °F 46 °F 30 °F (1961)
Degree Days  
Heating Degree Days 4 8  
Month to date heating degree days 346  
Since 1 July heating degree days 4806  
Growing Degree Days 10 (Base 50)    
Moisture  
Dew Point 50 °F    
Average Humidity 74    
Maximum Humidity 97    
Minimum Humidity 35    
Precipitation  
Precipitation 0.00 in 0.11 in 0.92 in (1966)
Month to date precipitation 3.27  
Year to date precipitation 12.65  
Sea Level Pressure  
Sea Level Pressure 30.05 in    
Wind  
Wind Speed 1 mph (South)    
Max Wind Speed 7 mph    
Max Gust Speed -    
Visibility 7 miles    
Events Fog    
T = Trace of Precipitation, MM = Missing Value Source: NWS Daily Summary

Daily Weather History Graph

Daily Weather History Graph

Search for Another Location

Airport:

Trip Planner

Search our weather history database for the weather conditions in past years. The results will help you decide how hot, cold, wet, or windy it might be!

Date:

Astronomy

Apr. 30, 2013 Rise Set
Actual Time 6:31 AM EDT 8:21 PM EDT
Civil Twilight 6:02 AM EDT 8:50 PM EDT
Nautical Twilight 5:27 AM EDT 9:25 PM EDT
Astronomical Twilight 4:50 AM EDT 10:03 PM EDT
Moon 12:43 AM EDT 10:59 AM EDT
Length of Visible Light 14h 47m
Length of Day
13h 49m
Waning Gibbous, 70% of the Moon is Illuminated
Apr 30
Waning Gibbous
May 2
Last Quarter
May 9
New
May 18
First Quarter
May 25
Full

Hourly Weather History & Observations

Time (EDT) Temp. Dew Point Humidity Pressure Visibility Wind Dir Wind Speed Gust Speed Precip Events Conditions
12:15 AM 50.2 °F 49.1 °F 96% 30.01 in 1.2 mi Calm Calm - N/A   Scattered Clouds
12:35 AM 49.1 °F 47.7 °F 95% 30.00 in 0.2 mi Calm Calm - N/A Fog Fog
12:55 AM 48.6 °F 47.3 °F 95% 30.01 in 0.5 mi Calm Calm - N/A Fog Fog
1:15 AM 47.7 °F 46.6 °F 96% 30.01 in 0.5 mi Calm Calm - N/A Fog Fog
1:35 AM 47.8 °F 46.6 °F 95% 30.01 in 0.2 mi Calm Calm - N/A Fog Fog
1:55 AM 46.8 °F 45.7 °F 96% 30.01 in 0.2 mi Calm Calm - N/A Fog Fog
2:15 AM 47.3 °F 46.4 °F 97% 30.01 in 0.2 mi Calm Calm - N/A Fog Fog
2:35 AM 46.6 °F 45.5 °F 96% 30.01 in 0.5 mi Calm Calm - N/A Fog Fog
2:55 AM 46.9 °F 45.9 °F 96% 30.01 in 0.2 mi Calm Calm - N/A Fog Fog
3:15 AM 46.0 °F 45.1 °F 97% 30.01 in 0.2 mi Calm Calm - N/A Fog Fog
3:35 AM 45.9 °F 45.0 °F 97% 30.02 in 0.8 mi Calm Calm - N/A   Overcast
3:55 AM 45.5 °F 44.6 °F 97% 30.02 in 0.2 mi Calm Calm - N/A Fog Fog
4:15 AM 45.5 °F 44.6 °F 97% 30.02 in 1.2 mi Calm Calm - N/A   Overcast
4:35 AM 45.5 °F 44.6 °F 97% 30.03 in 0.5 mi Calm Calm - N/A Fog Fog
4:55 AM 45.3 °F 44.4 °F 97% 30.03 in 0.2 mi Calm Calm - N/A Fog Fog
5:15 AM 44.6 °F 43.7 °F 97% 30.03 in 0.2 mi Calm Calm - N/A Fog Fog
5:35 AM 44.6 °F 43.7 °F 97% 30.04 in 0.2 mi Calm Calm - N/A Fog Fog
5:55 AM 44.6 °F 43.7 °F 97% 30.04 in 0.2 mi Calm Calm - N/A Fog Fog
6:15 AM 44.2 °F 43.3 °F 97% 30.04 in 0.5 mi Calm Calm - N/A Fog Fog
6:35 AM 44.1 °F 43.2 °F 97% 30.06 in 0.5 mi Calm Calm - N/A Fog Fog
6:55 AM 44.1 °F 43.2 °F 97% 30.06 in 0.5 mi Calm Calm - N/A Fog Fog
7:15 AM 44.2 °F 43.3 °F 97% 30.07 in 0.8 mi Calm Calm - N/A   Overcast
7:35 AM 45.5 °F 44.6 °F 97% 30.08 in 10.0 mi Calm Calm - N/A   Scattered Clouds
7:55 AM 46.8 °F 45.9 °F 97% 30.09 in 10.0 mi Calm Calm - N/A   Clear
8:15 AM 48.7 °F 47.8 °F 97% 30.08 in 10.0 mi Calm Calm - N/A   Clear
8:35 AM 50.5 °F 49.6 °F 97% 30.09 in 10.0 mi Calm Calm - N/A   Clear
8:55 AM 53.4 °F 52.5 °F 97% 30.09 in 10.0 mi Calm Calm - N/A   Clear
9:15 AM 56.5 °F 55.6 °F 97% 30.09 in 10.0 mi Calm Calm - N/A   Clear
9:35 AM 59.4 °F 58.1 °F 96% 30.09 in 10.0 mi Calm Calm - N/A   Clear
9:55 AM 61.7 °F 59.0 °F 91% 30.08 in 10.0 mi SSE 3.5 mph - N/A   Clear
10:15 AM 63.1 °F 57.6 °F 82% 30.08 in 10.0 mi SSE 3.5 mph - N/A   Clear
10:35 AM 66.6 °F 54.9 °F 66% 30.09 in 10.0 mi SSE 5.8 mph - N/A   Clear
10:55 AM 67.6 °F 53.8 °F 61% 30.09 in 10.0 mi South 5.8 mph - N/A   Clear
11:15 AM 68.9 °F 52.9 °F 57% 30.09 in 10.0 mi Calm Calm - N/A   Clear
11:35 AM 69.3 °F 53.6 °F 57% 30.09 in 10.0 mi Calm Calm - N/A   Clear
11:55 AM 69.8 °F 52.2 °F 53% 30.08 in 10.0 mi WSW 6.9 mph - N/A   Scattered Clouds
12:15 PM 68.7 °F 52.0 °F 55% 30.08 in 10.0 mi South 3.5 mph - N/A   Scattered Clouds
12:35 PM 70.0 °F 52.7 °F 54% 30.08 in 10.0 mi NNW 5.8 mph - N/A   Scattered Clouds
12:55 PM 71.6 °F 51.1 °F 48% 30.07 in 10.0 mi Calm Calm - N/A   Scattered Clouds
1:15 PM 71.6 °F 51.4 °F 49% 30.06 in 10.0 mi Calm Calm - N/A   Clear
1:55 PM 73.6 °F 53.1 °F 49% 30.06 in 10.0 mi NW 4.6 mph - N/A   Scattered Clouds
2:15 PM 73.9 °F 52.0 °F 46% 30.06 in 10.0 mi West 3.5 mph - N/A   Clear
2:55 PM 74.5 °F 52.3 °F 46% 30.06 in 10.0 mi North 4.6 mph - N/A   Clear
3:15 PM 74.7 °F 51.8 °F 45% 30.06 in 10.0 mi West 5.8 mph - N/A   Clear
3:35 PM 75.2 °F 50.2 °F 41% 30.04 in 10.0 mi SW 3.5 mph - N/A   Clear
3:55 PM 76.3 °F 51.8 °F 42% 30.04 in 10.0 mi Calm Calm - N/A   Clear
4:35 PM 76.3 °F 50.4 °F 40% 30.03 in 10.0 mi Calm Calm - N/A   Clear
4:55 PM 76.3 °F 50.2 °F 40% 30.03 in 10.0 mi Calm Calm - N/A   Clear
5:35 PM 77.0 °F 49.3 °F 38% 30.02 in 10.0 mi NE 3.5 mph - N/A   Clear
5:55 PM 77.2 °F 50.0 °F 38% 30.02 in 10.0 mi East 3.5 mph - N/A   Clear
6:15 PM 77.5 °F 47.5 °F 35% 30.03 in 10.0 mi Calm Calm - N/A   Clear
6:35 PM 76.6 °F 49.3 °F 38% 30.03 in 10.0 mi ENE 4.6 mph - N/A   Clear
6:55 PM 77.0 °F 47.8 °F 36% 30.03 in 10.0 mi ESE 5.8 mph - N/A   Clear
7:35 PM 75.4 °F 48.7 °F 39% 30.04 in 10.0 mi Calm Calm - N/A   Clear
7:55 PM 74.8 °F 49.5 °F 41% 30.05 in 10.0 mi Calm Calm - N/A   Clear
8:15 PM 69.6 °F 53.4 °F 56% 30.06 in 10.0 mi Calm Calm - N/A   Clear
8:35 PM 68.2 °F 52.5 °F 57% 30.06 in 10.0 mi Calm Calm - N/A   Clear
8:55 PM 65.7 °F 53.1 °F 64% 30.07 in 10.0 mi Calm Calm - N/A   Clear
9:15 PM 62.4 °F 52.5 °F 70% 30.08 in 10.0 mi Calm Calm - N/A   Clear
9:35 PM 62.1 °F 53.1 °F 72% 30.09 in 10.0 mi Calm Calm - N/A   Clear
9:55 PM 61.0 °F 52.3 °F 73% 30.09 in 10.0 mi Calm Calm - N/A   Clear
10:15 PM 60.1 °F 52.7 °F 77% 30.10 in 10.0 mi Calm Calm - N/A   Clear
10:35 PM 59.0 °F 53.2 °F 81% 30.10 in 10.0 mi Calm Calm - N/A   Clear
10:55 PM 57.9 °F 52.7 °F 83% 30.10 in 10.0 mi Calm Calm - N/A   Clear
11:15 PM 56.7 °F 52.9 °F 87% 30.10 in 10.0 mi Calm Calm - N/A   Clear
11:35 PM 57.2 °F 52.3 °F 84% 30.09 in 10.0 mi Calm Calm - N/A   Clear
11:55 PM 56.5 °F 52.3 °F 86% 30.09 in 10.0 mi Calm Calm - N/A   Clear